Вернуться в каталог

STARLINK-31595

АктивенСвязьVLEO
NORAD 59273·PAYLOAD·🇺🇸 United States

Запущен Mar 19, 2024 с Vandenberg Space Force Base

Loading…

Ближайшие Пролёты (ближайшие 24 часа)

TLE

СвежийSource: CelesTrak SupGP

Эпоха: Sep 14, 2026, 21:10 UTC

1 59273C 24050V   26257.88243056  .00030667  00000+0  90614-3 0  2576
2 59273  53.1611  21.6259 0001153  78.6669 270.4447 15.34372920    17

Отслеживайте STARLINK-31595 в реальном времени с AllMySat

Download on the App Store